Volver al catálogo

STARLINK-34945

ActivoComunicacionesSSO
NORAD 65185·PAYLOAD·🇺🇸 United States

Lanzado Aug 14, 2025 desde Vandenberg Space Force Base

Loading…

Próximos Pases (próximas 24 horas)

TLE

ActualizadoSource: CelesTrak SupGP

Época: Sep 14, 2026, 21:04 UTC

1 65185C 25175M   26257.87826389 -.00029335  00000+0 -91084-3 0  2573
2 65185  97.2844 126.8879 0001877  91.7916  61.2760 15.33445683    13

Sigue STARLINK-34945 en tiempo real con AllMySat

Download on the App Store